Vorticity
7 8 7 10 12 6 3 -4 -9 0 9 -2 -8 2 0 -2 2 0 1 4 3 2 3 0 -0 0 -1 -2 -1 -2 -5 -5 -3 4 4 -2 0 1 -2 -0 5 5 2 2 1 2 2 3 4 4 3 1 1 1 1 1 1 1 3 4 7 12 12 10 9 9 9 5 4 3 3 3 4 5 5 6 6 6 5 5 6 8 9 9 9 7 6 6 5 5 7 7 6 5 6 9 8
10 8 7 11 15 11 10 -2 -11 6 9 -10 -12 0 2 -1 2 4 0 -1 2 2 3 3 1 1 1 0 -1 -2 -2 -4 -1 5 2 -3 -2 -1 -4 -5 2 4 0 0 2 2 1 2 4 3 3 2 1 1 1 1 1 0 2 4 6 12 12 10 10 9 10 6 4 3 3 4 4 6 6 5 5 5 5 6 7 8 9 10 10 9 7 6 6 6 7 7 6 6 8 9 6
8 8 6 5 11 16 18 9 -6 4 7 -12 -12 -2 1 2 0 4 8 3 0 -1 1 3 2 2 0 1 1 -0 1 -0 2 5 2 -3 -5 -2 -2 -1 3 3 -0 -0 1 2 1 1 3 3 3 3 2 2 2 1 1 1 2 4 6 12 12 10 11 9 10 6 4 4 3 3 4 6 6 5 5 5 5 6 7 8 10 11 10 10 9 7 7 6 7 8 7 7 8 6 3
5 6 5 2 3 11 18 19 7 1 2 -12 -12 -1 -2 1 3 1 7 8 6 3 1 3 3 4 -0 -0 2 1 0 -1 1 3 2 -2 -4 -1 3 5 7 4 0 -1 -1 1 2 1 1 3 4 3 2 2 2 1 2 2 2 5 7 13 11 10 12 9 10 7 4 4 3 3 4 7 6 4 5 5 6 7 8 9 10 11 12 11 10 8 7 7 8 8 8 8 8 4 2
2 4 5 2 -0 5 9 20 17 7 9 -4 -15 -1 1 -5 2 4 4 6 7 6 4 4 5 7 6 2 1 1 -1 -2 1 2 1 -1 -2 1 3 3 5 7 3 -4 -3 1 2 3 1 3 4 3 2 1 1 1 3 3 2 6 9 13 9 8 12 9 9 7 4 4 3 3 4 7 5 4 4 5 7 7 7 8 10 11 13 12 11 9 8 9 9 8 8 9 6 2 2
1 2 4 2 2 2 1 13 22 15 10 1 -12 -5 4 -1 -1 3 5 6 6 4 2 2 2 4 6 3 1 -1 -2 -1 1 2 1 -1 -0 3 3 3 4 6 4 -3 -4 -1 2 5 2 2 5 3 1 0 1 2 4 4 4 8 11 13 8 8 12 9 9 7 4 5 2 3 5 7 5 4 4 5 7 7 7 8 9 11 13 13 11 10 10 10 9 8 8 7 4 2 1
1 1 4 3 4 1 -1 5 16 23 14 -1 -7 -5 1 -1 -0 4 6 8 7 4 2 1 -2 -2 -1 -0 0 -1 -1 2 4 4 0 -2 0 2 2 4 4 2 4 2 -2 -3 1 7 5 4 6 4 2 1 3 5 6 5 6 10 13 12 6 8 13 9 8 7 4 4 3 3 5 7 5 3 4 5 6 6 7 8 9 10 12 12 12 11 11 11 9 8 8 6 3 1 1
2 1 4 3 3 1 2 2 2 19 25 7 -9 -7 1 -3 -5 -2 -1 2 5 6 4 6 6 5 2 0 -0 -1 0 3 5 4 -0 -3 -1 0 0 2 3 3 4 5 3 -1 0 8 8 7 8 5 3 3 5 6 6 6 9 12 12 10 5 8 14 9 7 7 4 4 3 2 5 7 4 3 3 5 6 5 7 8 9 9 11 11 11 11 11 11 9 8 7 5 3 1 1
2 1 3 3 3 2 2 4 1 3 17 25 9 -9 -7 -3 -6 -12 -12 -7 -2 4 6 6 7 7 7 4 2 2 3 4 4 3 0 -1 0 1 1 1 2 5 3 5 8 0 1 11 11 10 9 7 5 5 7 6 6 9 11 13 12 8 4 9 14 8 6 6 4 4 3 2 5 6 5 4 3 4 5 4 6 8 9 9 10 10 10 10 10 10 8 8 6 4 3 1 2
3 2 2 5 3 1 2 2 4 1 1 18 28 14 -4 -7 -8 -16 -15 -8 -3 2 3 1 2 2 1 0 -0 3 5 6 7 6 5 5 6 3 3 2 1 3 2 6 8 1 7 13 11 11 10 7 6 7 8 6 9 12 12 12 11 7 4 10 14 7 6 6 4 4 4 3 4 6 5 4 3 4 4 4 6 8 9 8 9 9 8 9 9 9 8 8 6 4 2 2 3
2 3 1 5 4 -0 2 1 1 4 1 2 14 24 17 10 4 -7 -12 -10 -7 -2 -1 -3 -1 1 -0 2 5 8 10 10 10 9 9 9 7 3 3 2 2 4 4 8 7 5 12 12 10 11 10 8 8 10 10 10 12 12 11 11 9 6 5 10 13 8 6 6 5 4 4 4 4 6 5 4 3 3 4 3 5 8 9 9 8 8 7 8 8 9 9 8 6 3 2 2 4
1 4 1 3 5 1 0 3 3 1 5 4 2 8 13 17 19 17 12 -0 -11 -10 -5 -8 -6 1 6 9 11 11 10 9 7 5 6 4 2 2 3 4 5 6 5 8 7 8 11 9 8 8 9 8 9 12 11 11 11 10 11 11 8 5 6 10 12 8 7 6 4 4 4 5 4 6 6 4 3 2 3 3 4 7 9 9 9 8 7 6 6 7 8 9 7 4 3 3 4
2 2 3 3 3 2 1 1 3 3 3 4 3 4 3 5 9 17 24 19 6 -3 -1 0 3 7 7 7 6 7 7 6 6 5 5 5 5 5 6 8 7 4 4 6 7 10 6 2 5 5 8 9 8 10 9 9 10 10 11 9 7 6 7 10 11 8 7 5 4 4 4 5 4 5 6 4 3 2 3 4 4 6 9 10 9 9 8 6 6 6 8 9 8 5 3 3 5
3 1 2 5 3 3 4 2 2 4 3 1 2 3 5 4 3 6 11 18 18 13 12 11 10 6 2 3 3 4 6 6 6 6 7 7 7 6 7 6 3 1 2 3 4 8 2 -2 4 5 8 8 7 8 7 10 10 10 9 7 7 7 7 9 9 8 6 5 4 4 4 5 5 5 6 5 3 3 3 4 4 4 8 10 10 9 8 8 7 7 8 9 8 5 4 4 6
2 2 2 4 4 2 4 5 3 4 2 2 4 2 5 5 1 3 4 8 13 14 14 7 2 -0 -1 2 3 3 4 4 5 5 5 5 4 5 3 -1 -1 -1 0 3 2 7 7 3 5 6 9 7 6 8 8 10 10 9 7 7 8 7 8 8 8 7 5 5 4 4 4 5 5 5 6 5 4 3 3 4 4 4 7 9 9 9 9 9 8 7 8 9 8 5 5 5 7
2 2 4 5 3 0 0 1 3 7 3 1 5 2 4 7 3 4 2 4 6 6 7 4 2 1 -0 1 1 3 3 2 2 2 3 3 3 2 -0 -2 -1 -0 1 4 1 7 13 10 8 7 7 7 7 10 9 9 9 8 7 7 8 7 7 8 7 5 4 4 4 4 4 5 5 5 5 5 4 3 3 3 4 4 6 9 9 9 9 9 8 7 7 8 7 6 6 6 7
2 3 5 6 4 1 -1 -2 -1 3 1 0 4 2 3 6 7 8 5 4 4 2 4 5 6 5 4 3 3 4 4 3 2 2 4 2 2 -0 -1 0 0 0 0 2 3 8 12 7 14 15 5 4 10 11 9 9 9 7 7 8 7 7 7 8 6 4 4 3 4 4 4 5 5 5 5 5 4 3 3 3 4 4 5 8 10 9 8 9 8 7 7 7 8 7 7 7 7
2 5 7 6 5 5 1 -2 -1 -1 -1 0 2 4 6 4 3 6 7 6 4 3 3 2 4 4 5 4 3 3 2 3 2 3 3 1 1 0 0 1 -1 -1 -1 3 4 8 10 0 10 20 7 3 8 11 11 9 8 7 7 7 7 7 7 7 6 3 3 4 5 4 4 5 5 5 5 6 5 4 4 4 4 4 4 5 10 9 7 9 9 8 7 8 8 7 6 6 6
3 5 6 6 3 3 2 1 2 0 -0 1 2 5 7 6 4 2 4 5 4 3 3 3 3 3 3 4 3 2 1 2 1 1 0 -1 0 -0 -0 -1 -2 -1 0 4 6 11 12 4 15 21 7 4 8 11 11 7 5 4 4 5 6 6 7 7 5 3 3 4 4 4 5 5 5 5 6 7 6 5 4 4 3 4 3 3 8 9 7 8 9 9 8 8 8 6 6 6 6
5 6 5 6 3 2 2 1 2 1 1 1 2 5 5 6 7 5 3 3 4 4 3 3 3 3 2 2 2 2 2 0 -0 -1 -2 -2 -1 -1 -1 -2 -1 2 4 8 12 11 6 13 31 25 7 5 10 11 9 6 5 5 5 4 4 5 7 8 5 4 4 4 4 5 6 6 7 7 7 8 7 7 5 4 4 4 3 2 5 8 8 8 9 9 7 7 6 6 6 5 5
5 5 5 5 5 4 3 1 1 1 2 -0 -0 3 3 3 4 6 4 3 4 4 3 4 3 3 2 1 0 0 1 0 -0 -1 -1 -1 -2 -1 0 1 4 6 10 11 11 12 20 43 45 18 6 7 8 10 9 8 8 6 7 6 6 5 7 9 6 5 5 5 5 6 6 7 7 7 7 8 8 8 7 5 4 4 4 2 3 6 8 9 9 8 7 6 6 6 5 4 4
5 3 4 6 6 6 4 2 2 1 2 1 1 1 2 3 1 1 2 2 3 3 3 4 4 3 1 1 -0 -0 1 1 1 1 2 2 2 3 4 6 8 8 10 9 11 15 20 41 40 10 4 6 7 10 8 9 9 7 8 8 8 7 8 7 6 5 5 5 5 6 7 7 7 7 7 7 8 8 8 7 5 4 4 3 3 5 6 8 9 7 6 6 6 6 4 3 3
5 4 6 6 6 7 6 4 2 3 3 2 3 2 1 2 2 -0 1 0 -0 1 1 2 4 4 3 3 2 2 1 2 3 4 4 6 5 6 7 8 8 9 11 10 18 13 -17 -18 4 8 5 5 6 7 6 8 11 11 10 10 12 10 8 5 5 5 4 5 5 6 6 8 7 7 7 6 6 6 7 7 6 5 4 3 3 4 5 6 6 5 4 5 5 5 4 4 3
5 5 7 7 7 7 6 7 5 3 3 1 4 6 3 1 2 1 0 1 0 0 0 -0 0 2 2 3 3 3 3 4 5 5 5 6 7 8 8 8 8 10 15 14 16 13 -13 -28 -10 8 10 6 5 5 5 6 6 7 9 12 14 12 8 6 6 5 4 5 6 6 7 8 9 7 7 7 5 5 5 5 6 6 4 3 3 3 4 5 4 2 3 5 5 4 4 4 4
5 4 6 7 8 9 6 6 6 5 4 3 4 6 5 3 3 2 -1 0 1 1 1 1 -0 1 1 1 2 2 2 3 3 4 5 6 7 8 8 9 12 12 14 14 10 11 6 -5 -4 8 12 7 5 5 5 3 1 3 6 10 11 11 9 8 6 4 4 5 5 6 7 8 9 8 7 6 5 5 4 4 6 6 4 3 3 3 3 4 4 2 4 4 4 5 4 4 4
6 5 5 5 7 9 8 7 7 6 5 5 5 4 5 5 5 4 1 -0 1 1 1 2 2 2 1 2 2 1 2 2 2 4 5 6 7 7 8 11 14 12 11 12 11 9 7 4 1 6 10 7 6 6 6 3 2 3 6 9 9 8 7 7 6 4 3 4 5 6 7 8 8 7 6 5 7 8 10 9 7 5 5 5 3 3 3 4 5 3 4 5 5 5 3 4 5
7 6 5 4 5 7 9 10 10 9 7 6 6 5 5 6 6 6 3 1 2 3 2 2 3 2 2 2 3 3 2 2 3 4 5 5 5 6 12 14 11 10 10 13 14 11 8 7 5 6 8 8 7 8 7 4 3 5 7 9 8 6 5 5 4 4 4 4 6 7 7 8 8 8 6 7 9 11 12 13 13 9 6 7 4 2 3 3 5 5 5 5 5 3 3 5 5
6 6 6 5 4 5 7 10 12 12 11 10 8 6 7 7 8 6 2 1 3 3 4 4 2 2 2 2 3 4 3 4 4 5 6 5 7 11 13 11 9 8 10 13 15 13 11 9 8 7 5 6 9 10 8 4 4 6 9 10 10 9 6 2 3 4 5 5 6 7 7 7 8 9 9 9 8 8 10 14 21 18 10 7 4 3 3 4 5 6 6 5 4 4 4 6 6
6 5 7 7 5 5 4 5 9 11 13 14 13 12 12 10 7 6 3 3 4 3 5 5 4 3 3 3 4 4 4 6 5 6 7 8 11 13 11 8 8 9 11 14 15 13 13 13 11 7 6 9 10 7 5 4 5 9 11 9 6 2 -2 -1 4 5 5 5 5 6 7 7 8 9 10 10 9 10 11 13 20 20 10 5 4 3 3 5 6 6 6 5 4 5 6 7 7
7 6 6 7 7 6 4 3 5 7 9 12 14 16 16 12 10 9 7 7 7 6 6 7 7 5 6 6 5 5 6 6 8 8 8 10 13 12 10 11 10 12 15 15 15 16 15 15 12 9 9 9 6 3 3 4 6 10 9 4 0 -1 0 6 9 6 4 4 5 6 7 8 9 9 10 11 11 10 10 12 18 17 8 4 5 4 5 7 8 8 6 5 5 7 7 7 6
8 7 7 7 8 8 5 4 4 4 6 7 10 13 12 13 15 14 11 11 11 10 10 10 9 8 9 9 7 8 8 8 9 8 9 13 14 11 11 15 17 17 17 15 14 16 16 14 11 9 8 7 4 3 4 4 7 9 8 6 6 7 9 10 7 5 5 6 7 8 8 9 9 9 9 9 8 6 6 10 17 17 8 4 5 4 7 8 8 7 6 6 6 6 5 5 6
8 8 8 7 8 9 7 6 4 3 3 4 7 7 7 9 12 14 13 14 13 12 13 12 12 11 10 10 11 10 9 10 8 9 14 15 12 13 17 21 20 16 13 12 13 14 13 11 10 8 7 5 3 2 3 5 7 9 9 8 6 6 7 6 6 7 8 8 9 8 7 8 9 9 9 7 5 6 7 9 16 18 10 4 5 6 8 9 8 7 6 6 5 5 5 6 8
7 7 7 6 6 7 8 8 6 4 3 3 5 3 4 6 7 9 11 12 13 13 13 13 13 13 13 12 13 12 10 9 11 15 18 13 11 17 21 19 15 11 10 11 14 15 14 15 13 10 9 7 3 1 3 7 8 9 7 4 4 6 6 4 4 5 6 7 8 8 7 7 9 9 8 6 5 7 9 12 16 17 12 6 6 8 8 7 7 6 5 5 4 5 6 7 8
8 7 7 7 6 6 8 9 8 6 6 5 5 2 2 3 4 5 6 8 11 12 12 13 13 14 14 14 15 15 14 15 18 20 14 11 15 18 17 13 10 10 10 11 12 12 13 13 12 13 13 11 8 7 9 10 10 8 6 4 6 7 5 3 2 3 5 7 8 7 7 8 9 8 7 7 7 9 11 14 17 15 11 8 8 9 6 5 4 4 4 4 5 6 6 7 7
10 8 6 6 6 5 7 9 9 7 7 7 6 4 2 2 3 3 4 5 7 9 10 12 13 15 15 15 17 16 16 19 20 15 11 13 16 13 11 9 8 8 8 10 10 9 8 7 9 9 11 12 10 12 13 10 10 11 9 8 9 9 6 3 2 4 7 9 8 7 8 9 9 9 9 8 8 10 11 14 17 13 8 8 8 7 4 4 5 4 4 4 6 7 6 6 5
12 10 7 6 5 5 7 9 11 8 7 9 8 6 4 4 3 3 3 4 6 7 7 9 11 13 15 14 14 13 14 16 13 9 11 14 10 8 9 8 8 8 8 9 7 6 6 8 8 5 12 14 5 9 13 7 8 11 9 7 8 8 5 2 5 9 10 10 8 7 8 9 9 9 8 8 9 11 12 12 13 10 7 7 6 3 3 5 6 5 4 5 7 6 5 4 3
12 11 9 8 7 6 6 10 14 11 8 9 8 6 6 7 5 4 4 3 5 6 6 8 9 10 11 10 10 10 13 11 6 7 10 9 6 7 8 6 7 6 7 10 8 10 10 6 4 6 17 11 -3 6 12 4 3 7 8 6 6 7 5 5 7 7 9 12 9 7 9 8 7 7 9 10 11 14 13 11 10 8 5 5 4 3 4 5 5 5 6 6 6 5 4 3 3
11 12 10 9 8 6 6 11 15 14 11 9 7 6 6 7 7 6 5 3 3 5 6 8 8 8 7 6 7 9 10 5 2 8 9 6 5 6 5 5 6 4 7 12 11 13 14 9 7 13 16 5 -1 6 4 3 8 11 14 11 9 9 6 6 5 3 8 13 10 7 7 7 8 10 12 12 14 15 14 11 10 6 5 5 5 5 5 5 5 5 6 5 4 4 3 2 3
12 12 11 9 8 7 5 9 14 14 13 11 8 6 6 7 8 7 7 5 4 4 5 6 7 8 6 6 8 12 10 2 2 7 5 3 4 5 6 6 6 5 8 11 11 8 4 3 8 15 16 8 7 6 2 11 15 9 9 10 10 10 7 7 4 1 7 12 10 7 7 8 9 10 10 9 11 13 12 11 9 6 5 6 5 5 4 5 6 5 5 5 4 3 3 4 5
12 11 11 9 8 8 6 8 13 13 12 13 11 7 5 6 7 8 7 5 4 3 4 5 5 6 5 6 11 11 6 1 4 6 2 3 6 6 7 6 8 9 6 9 13 7 -2 -2 4 11 15 10 8 10 11 14 7 -2 3 9 11 10 6 5 4 5 11 15 12 7 7 9 10 13 14 9 7 12 13 10 8 5 6 6 5 5 4 5 5 5 5 4 4 4 5 7 6
11 11 11 11 8 9 9 10 15 16 13 12 12 10 8 6 5 7 8 5 5 3 3 5 5 5 4 6 12 10 5 4 6 5 2 3 5 7 7 7 9 8 5 9 14 9 3 4 6 8 10 6 6 12 13 7 -1 -3 4 9 11 8 5 5 7 11 15 17 12 7 10 11 12 17 17 10 8 14 12 6 5 6 7 6 5 5 5 5 5 4 4 3 4 6 6 6 5
11 12 11 11 9 7 8 10 13 14 13 10 11 11 10 7 5 6 8 7 6 4 4 4 4 6 3 5 11 8 5 8 6 3 1 2 5 8 7 7 9 7 9 14 12 8 10 12 9 8 8 5 7 11 8 3 -0 3 9 10 7 3 5 12 11 7 11 15 11 9 13 13 12 14 13 12 12 11 7 5 8 8 6 5 4 5 5 4 4 3 4 5 5 6 6 6 7
9 12 12 11 10 8 8 11 11 11 11 10 11 11 10 8 6 6 6 8 7 4 4 4 4 5 3 7 10 7 6 8 5 2 1 3 6 7 5 7 7 6 12 15 7 6 10 11 8 5 5 8 10 9 5 3 3 8 10 9 7 4 7 14 7 -1 4 8 8 12 17 13 10 8 6 10 12 9 8 9 9 6 5 4 4 4 4 3 4 4 5 6 6 7 7 8 8
9 11 12 11 11 10 9 11 12 13 12 11 11 10 10 9 8 7 6 7 7 6 5 4 6 4 2 8 10 4 6 7 4 2 3 5 6 6 6 7 6 5 12 11 5 7 9 9 11 10 12 15 11 7 5 5 9 12 9 8 12 10 9 10 3 1 5 6 11 18 15 8 6 6 6 9 12 11 10 9 7 5 5 4 4 4 4 4 5 5 6 6 7 8 9 9 8
10 10 12 12 10 11 11 11 12 13 12 11 10 9 9 9 9 8 6 6 7 7 5 4 4 3 4 9 8 5 6 6 3 3 4 6 7 7 7 8 7 8 12 9 6 12 14 14 16 13 12 11 6 6 7 9 14 14 11 12 15 13 11 8 8 13 14 15 24 22 11 6 5 7 11 12 11 10 8 7 6 5 4 4 4 5 5 6 6 6 7 7 8 8 8 8 8
10 10 11 12 11 10 10 12 12 11 11 11 10 8 8 8 8 8 7 7 9 8 6 4 3 4 6 8 5 4 6 4 3 4 4 7 7 7 8 11 11 11 13 12 11 15 13 10 8 5 5 4 3 4 5 11 16 10 7 13 17 18 14 4 1 8 12 19 25 16 6 6 4 6 12 11 9 8 7 6 4 3 4 5 6 6 6 6 6 7 7 8 8 7 7 8 8
10 9 9 11 12 12 12 14 12 10 10 10 10 9 7 7 9 9 5 6 9 9 6 5 5 6 7 6 3 3 6 5 4 4 5 7 7 7 9 11 10 9 9 10 12 11 4 3 6 6 7 7 8 8 6 11 14 7 7 10 10 14 13 -1 -6 4 14 19 17 7 3 5 7 12 14 10 8 6 4 4 4 4 5 5 6 6 6 7 7 8 8 8 8 8 8 8 9
9 9 9 9 10 13 13 14 11 8 10 10 9 9 8 9 12 10 6 5 7 8 8 6 5 9 10 7 6 6 6 6 4 4 6 8 7 7 10 9 7 6 6 7 8 6 2 5 9 10 10 9 11 12 11 13 11 7 8 7 5 9 10 4 3 11 16 13 8 6 7 9 14 17 13 9 7 4 4 4 5 5 5 5 6 6 7 7 7 7 8 8 8 9 9 9 10
9 7 7 5 7 10 9 9 6 6 10 10 8 8 8 10 10 9 8 7 6 7 10 8 4 7 10 8 9 10 9 7 4 3 6 9 8 7 9 7 5 5 4 4 5 5 6 9 10 12 14 12 11 10 11 12 12 8 5 5 7 8 9 12 14 14 14 10 5 5 9 14 16 13 9 7 5 4 5 6 5 5 4 5 6 6 7 7 7 8 8 9 9 9 9 9 10
9 7 4 2 3 4 5 6 7 7 8 9 9 8 8 8 9 11 10 8 8 6 8 11 7 6 8 10 14 14 9 5 2 2 5 9 9 7 8 7 5 4 4 4 4 6 9 11 10 12 12 9 8 8 9 8 8 10 8 8 9 9 11 15 14 11 10 8 7 9 16 19 14 9 6 5 4 5 6 5 4 4 4 5 6 6 7 7 7 8 8 9 9 9 9 9 10
12 11 9 7 6 7 10 10 9 8 6 8 9 6 6 7 9 12 11 9 9 8 7 8 7 5 4 5 6 4 1 -1 0 3 6 10 10 7 7 6 3 3 4 4 5 7 10 10 8 9 9 7 7 8 11 13 14 14 12 10 9 10 12 12 8 7 6 5 11 19 21 16 9 5 4 4 6 6 5 4 4 5 5 6 6 6 6 6 7 7 7 8 8 9 10 10 10
15 13 8 8 9 10 14 14 10 9 7 8 8 4 3 6 8 10 12 10 9 9 8 7 7 6 5 4 2 -3 -4 -2 1 4 7 11 13 9 7 5 2 4 5 5 6 7 9 9 6 6 7 5 7 9 12 18 18 13 11 11 13 10 6 8 9 9 10 12 19 19 12 7 5 5 5 6 7 5 4 4 4 5 5 5 6 6 6 6 6 6 6 7 8 9 9 9 10
14 13 7 7 9 8 12 15 12 10 7 7 8 5 2 4 6 10 12 11 9 9 9 9 8 7 8 9 4 -1 -1 2 5 8 9 12 14 12 7 3 2 5 6 5 7 6 7 8 5 8 8 5 11 11 10 16 15 9 8 10 15 11 4 9 11 7 13 18 17 11 5 4 4 6 8 7 5 4 4 4 3 4 5 5 5 4 5 6 6 6 6 6 7 8 9 9 10
14 14 10 9 10 7 9 12 11 10 7 6 9 6 3 4 6 11 13 11 10 9 8 9 9 7 10 9 2 -0 4 6 6 7 7 11 17 15 7 2 5 7 6 5 6 5 6 7 7 10 8 7 13 9 9 18 11 3 5 6 11 12 7 11 12 10 16 16 10 6 3 4 6 8 9 5 4 4 3 3 3 3 4 3 3 3 4 5 6 6 6 6 7 7 8 9 9
12 14 12 9 8 6 8 9 9 10 7 6 9 8 5 5 4 8 13 12 11 10 8 8 8 7 8 6 1 2 6 5 3 6 10 14 18 15 6 3 7 8 6 5 5 5 7 8 10 12 6 7 14 9 9 15 2 -3 8 8 10 12 10 13 14 14 15 8 4 4 3 6 9 9 6 3 3 3 2 2 2 3 3 3 3 3 3 5 6 7 6 6 8 8 9 9 9
8 12 14 10 8 7 8 8 8 9 8 6 8 9 7 5 2 4 9 12 11 11 9 9 9 8 6 3 2 4 6 5 3 8 15 15 14 11 5 5 8 7 5 4 5 7 8 9 11 12 6 6 13 9 5 6 -1 3 14 12 10 13 12 15 15 12 9 3 3 5 5 10 10 6 4 3 2 2 1 2 2 3 4 3 3 2 2 4 5 6 6 7 8 9 9 9 9
7 11 13 9 8 8 8 9 9 8 8 6 7 9 9 7 5 3 6 13 14 11 10 9 9 10 7 3 2 3 5 4 4 10 15 11 10 9 7 7 7 4 4 4 6 7 7 10 11 11 8 6 10 9 4 4 7 11 14 11 11 14 14 15 12 6 3 2 4 6 9 12 7 3 3 2 1 1 1 2 3 5 5 4 4 3 2 3 4 6 6 7 8 9 9 10 10
10 11 13 9 7 8 8 9 10 7 6 7 7 8 8 8 9 7 6 11 15 13 11 10 11 12 9 3 3 5 7 6 6 11 10 3 6 11 10 8 5 2 3 3 5 6 6 11 12 10 10 7 7 8 5 4 8 13 14 11 11 13 14 11 6 3 3 3 6 9 12 9 3 3 3 1 1 1 1 3 5 6 5 4 4 4 3 3 4 6 7 7 9 9 9 10 10
Height
5869 5871 5875 5878 5879 5880 5881 5882 5884 5886 5887 5887 5887 5888 5888 5888 5890 5891 5891 5891 5892 5892 5893 5893 5894 5895 5896 5896 5896 5897 5898 5898 5898 5898 5898 5898 5898 5898 5898 5898 5897 5897 5897 5897 5896 5896 5895 5895 5894 5894 5893 5892 5892 5891 5890 5889 5888 5888 5887 5887 5887 5886 5886 5886 5885 5884 5883 5882 5881 5881 5880 5880 5879 5879 5878 5877 5876 5875 5875 5874 5873 5872 5872 5871 5870 5870 5869 5869 5868 5868 5867 5866 5866 5865 5864 5864 5863
5867 5868 5871 5875 5877 5879 5880 5881 5881 5883 5884 5885 5885 5886 5887 5887 5888 5889 5890 5890 5890 5891 5891 5892 5893 5893 5894 5894 5895 5896 5897 5897 5897 5897 5897 5897 5897 5897 5897 5897 5897 5897 5896 5896 5896 5896 5895 5895 5894 5893 5892 5892 5891 5890 5889 5888 5888 5887 5887 5887 5886 5886 5886 5885 5884 5883 5883 5882 5881 5880 5880 5880 5879 5878 5877 5877 5876 5875 5874 5873 5873 5872 5871 5871 5870 5869 5869 5868 5868 5867 5867 5866 5866 5865 5864 5864 5863
5865 5867 5869 5871 5874 5876 5878 5879 5880 5881 5883 5883 5883 5884 5885 5886 5886 5887 5888 5888 5889 5889 5889 5890 5891 5891 5892 5892 5893 5895 5896 5896 5896 5896 5896 5896 5896 5896 5897 5897 5896 5896 5896 5896 5896 5895 5895 5894 5893 5893 5892 5891 5890 5889 5888 5887 5887 5886 5886 5886 5886 5886 5885 5885 5884 5883 5882 5881 5881 5880 5880 5879 5879 5878 5877 5876 5875 5874 5874 5873 5872 5872 5871 5870 5869 5869 5868 5868 5867 5867 5867 5866 5865 5865 5864 5864 5863
5863 5865 5867 5868 5871 5873 5875 5877 5878 5880 5881 5883 5883 5883 5883 5884 5885 5885 5886 5886 5887 5887 5887 5888 5889 5889 5890 5891 5892 5893 5894 5895 5895 5895 5895 5895 5896 5896 5896 5896 5896 5895 5895 5895 5895 5895 5894 5893 5893 5892 5891 5891 5890 5889 5888 5887 5886 5886 5886 5886 5886 5886 5885 5884 5883 5882 5882 5881 5881 5880 5880 5879 5879 5878 5877 5876 5875 5874 5873 5873 5872 5871 5870 5870 5869 5868 5868 5867 5867 5867 5866 5866 5865 5865 5864 5864 5863
5861 5863 5864 5866 5868 5870 5872 5874 5875 5877 5879 5880 5882 5882 5882 5883 5883 5884 5884 5884 5885 5885 5885 5886 5887 5888 5889 5890 5891 5892 5893 5893 5894 5894 5894 5894 5894 5895 5895 5895 5895 5894 5894 5895 5895 5894 5893 5893 5892 5892 5891 5890 5889 5888 5887 5886 5886 5885 5885 5886 5885 5885 5884 5883 5882 5882 5881 5881 5880 5880 5879 5879 5878 5878 5877 5876 5875 5874 5873 5873 5872 5871 5870 5869 5868 5868 5867 5867 5867 5866 5866 5865 5865 5865 5864 5864 5863
5858 5860 5862 5864 5865 5866 5869 5871 5872 5875 5877 5878 5880 5880 5880 5880 5882 5882 5882 5882 5883 5883 5884 5884 5885 5886 5887 5888 5889 5890 5891 5892 5892 5892 5892 5892 5893 5894 5894 5893 5893 5893 5893 5894 5894 5893 5893 5892 5892 5891 5891 5890 5889 5887 5886 5885 5885 5885 5885 5885 5885 5884 5883 5882 5881 5881 5881 5881 5880 5879 5879 5878 5878 5877 5877 5876 5875 5874 5873 5873 5872 5871 5870 5869 5868 5867 5867 5867 5866 5866 5866 5865 5865 5864 5864 5863 5863
5855 5857 5858 5861 5862 5863 5865 5867 5870 5872 5874 5876 5877 5878 5877 5877 5879 5881 5881 5881 5881 5881 5882 5882 5883 5884 5886 5886 5887 5888 5889 5890 5890 5891 5891 5891 5892 5892 5891 5891 5891 5891 5892 5893 5893 5893 5892 5891 5891 5891 5890 5889 5888 5886 5885 5884 5884 5884 5884 5884 5884 5883 5881 5881 5881 5881 5881 5880 5880 5879 5878 5878 5877 5877 5876 5876 5875 5874 5873 5872 5872 5871 5870 5869 5868 5867 5867 5866 5866 5866 5865 5865 5864 5864 5864 5863 5863
5852 5853 5855 5858 5859 5860 5862 5864 5867 5870 5872 5873 5875 5876 5875 5874 5875 5878 5879 5879 5880 5880 5880 5880 5881 5883 5884 5884 5885 5886 5887 5888 5888 5889 5889 5890 5890 5890 5889 5889 5889 5890 5890 5891 5892 5892 5891 5890 5890 5890 5889 5888 5887 5885 5884 5883 5883 5883 5883 5883 5882 5881 5880 5880 5880 5880 5880 5880 5879 5879 5878 5878 5877 5877 5876 5875 5875 5874 5873 5872 5871 5871 5870 5869 5868 5867 5866 5866 5866 5865 5865 5865 5864 5864 5864 5863 5863
5849 5850 5852 5854 5855 5856 5858 5861 5864 5867 5870 5872 5873 5874 5873 5872 5872 5875 5877 5877 5878 5878 5878 5879 5879 5881 5882 5882 5883 5884 5885 5886 5887 5888 5888 5888 5888 5888 5888 5887 5888 5888 5889 5890 5891 5890 5890 5889 5889 5888 5887 5886 5885 5883 5882 5881 5881 5882 5882 5881 5881 5880 5879 5879 5879 5880 5879 5879 5879 5878 5878 5877 5877 5876 5876 5875 5874 5873 5872 5872 5871 5870 5870 5869 5868 5867 5867 5866 5865 5865 5864 5864 5864 5864 5864 5863 5862
5845 5847 5848 5850 5851 5853 5855 5858 5861 5865 5868 5870 5872 5873 5872 5871 5871 5873 5874 5875 5876 5876 5876 5877 5878 5879 5880 5881 5882 5882 5883 5884 5885 5886 5886 5886 5887 5886 5886 5886 5887 5887 5888 5889 5889 5889 5889 5888 5888 5887 5885 5884 5883 5881 5880 5880 5880 5881 5880 5880 5879 5878 5878 5878 5879 5879 5879 5879 5878 5878 5877 5877 5876 5876 5875 5874 5874 5873 5872 5871 5871 5870 5869 5869 5868 5867 5867 5866 5865 5865 5864 5864 5864 5864 5863 5863 5862
5841 5843 5844 5846 5847 5849 5851 5855 5859 5862 5866 5867 5869 5871 5871 5871 5871 5872 5872 5873 5874 5875 5875 5875 5876 5877 5879 5880 5880 5881 5882 5883 5883 5884 5885 5885 5885 5885 5884 5885 5886 5886 5887 5887 5888 5888 5888 5888 5887 5885 5884 5882 5881 5880 5879 5879 5879 5879 5879 5878 5878 5877 5877 5877 5878 5878 5878 5878 5877 5877 5877 5876 5876 5875 5874 5874 5873 5872 5871 5871 5870 5870 5869 5868 5868 5867 5867 5866 5865 5865 5864 5863 5863 5863 5863 5862 5862
5837 5839 5841 5842 5843 5846 5849 5852 5855 5859 5862 5864 5867 5869 5869 5869 5870 5870 5870 5871 5872 5873 5873 5873 5875 5876 5878 5879 5879 5880 5880 5881 5882 5883 5883 5884 5884 5883 5883 5884 5885 5885 5885 5886 5886 5887 5887 5887 5885 5884 5882 5881 5879 5878 5878 5878 5878 5877 5877 5876 5876 5876 5876 5876 5877 5877 5877 5877 5876 5876 5876 5876 5875 5875 5874 5873 5872 5871 5871 5870 5870 5869 5869 5868 5867 5867 5866 5866 5865 5864 5864 5863 5863 5863 5862 5862 5861
5833 5835 5837 5838 5840 5843 5845 5848 5851 5855 5858 5861 5865 5867 5867 5867 5868 5868 5869 5870 5871 5872 5872 5872 5873 5875 5877 5878 5878 5878 5879 5880 5881 5881 5882 5882 5882 5882 5882 5882 5883 5883 5884 5884 5885 5886 5886 5886 5884 5882 5881 5879 5878 5878 5877 5877 5876 5876 5875 5875 5875 5875 5875 5875 5876 5876 5876 5876 5875 5875 5875 5875 5875 5874 5873 5872 5872 5871 5870 5869 5869 5869 5868 5867 5866 5866 5865 5865 5864 5864 5863 5863 5862 5862 5862 5861 5860
5830 5831 5833 5834 5836 5838 5841 5844 5847 5851 5855 5859 5863 5864 5865 5865 5866 5866 5867 5868 5869 5870 5871 5871 5871 5873 5875 5876 5876 5876 5878 5879 5879 5879 5880 5880 5881 5881 5881 5881 5881 5881 5882 5883 5884 5885 5885 5884 5882 5881 5880 5878 5878 5877 5876 5876 5875 5874 5874 5873 5873 5873 5873 5874 5875 5875 5875 5874 5874 5874 5874 5874 5874 5873 5872 5872 5871 5870 5869 5869 5869 5868 5868 5867 5866 5865 5865 5864 5864 5863 5863 5862 5862 5861 5861 5860 5860
5826 5827 5829 5830 5831 5834 5837 5840 5843 5847 5851 5857 5860 5862 5863 5863 5863 5864 5865 5866 5867 5868 5869 5869 5869 5871 5873 5874 5875 5875 5876 5877 5877 5878 5878 5879 5879 5879 5879 5878 5879 5880 5881 5882 5883 5884 5884 5883 5881 5879 5878 5877 5877 5876 5876 5875 5874 5873 5873 5872 5872 5872 5872 5872 5873 5873 5873 5873 5873 5873 5873 5873 5873 5872 5872 5871 5870 5869 5869 5869 5868 5868 5867 5866 5865 5864 5864 5863 5863 5862 5862 5861 5861 5860 5860 5859 5859
5821 5823 5824 5825 5826 5830 5833 5836 5840 5843 5848 5854 5857 5859 5862 5861 5860 5861 5862 5863 5864 5865 5867 5868 5868 5869 5871 5872 5873 5873 5874 5874 5875 5876 5877 5877 5877 5876 5876 5877 5877 5878 5880 5881 5882 5882 5882 5881 5879 5878 5877 5877 5876 5876 5875 5874 5873 5872 5871 5871 5870 5870 5870 5871 5871 5871 5871 5871 5871 5871 5872 5872 5872 5871 5871 5870 5869 5868 5868 5868 5868 5867 5867 5866 5865 5864 5863 5862 5862 5861 5861 5861 5860 5859 5859 5858 5858
5817 5818 5819 5819 5822 5825 5829 5833 5837 5840 5846 5851 5854 5856 5858 5858 5858 5858 5859 5860 5862 5863 5865 5866 5866 5867 5869 5870 5870 5871 5872 5872 5874 5875 5875 5875 5874 5874 5874 5875 5876 5877 5878 5880 5880 5880 5879 5878 5877 5876 5876 5875 5875 5875 5874 5873 5872 5871 5870 5869 5869 5868 5868 5869 5869 5869 5869 5870 5870 5870 5870 5870 5870 5870 5869 5869 5868 5867 5867 5867 5867 5866 5866 5866 5865 5864 5863 5862 5861 5861 5860 5860 5859 5858 5858 5858 5857
5811 5812 5814 5814 5817 5822 5826 5832 5835 5839 5843 5847 5850 5852 5854 5855 5855 5855 5856 5858 5859 5861 5862 5864 5865 5866 5867 5868 5868 5868 5869 5870 5873 5873 5873 5872 5872 5872 5873 5873 5874 5875 5877 5878 5878 5877 5876 5875 5875 5874 5874 5874 5874 5874 5873 5872 5871 5870 5869 5868 5867 5866 5867 5867 5867 5867 5867 5868 5868 5868 5869 5869 5869 5869 5868 5868 5867 5866 5865 5865 5865 5865 5865 5864 5864 5863 5862 5861 5860 5860 5859 5859 5858 5858 5857 5857 5856
5806 5809 5810 5810 5815 5820 5825 5830 5833 5836 5839 5843 5846 5848 5850 5851 5852 5852 5853 5855 5856 5858 5860 5861 5863 5864 5865 5865 5865 5865 5867 5869 5870 5870 5870 5870 5870 5871 5872 5872 5872 5874 5875 5876 5876 5874 5873 5873 5872 5871 5871 5872 5872 5872 5871 5871 5870 5869 5868 5867 5866 5865 5865 5866 5866 5866 5866 5866 5867 5867 5867 5868 5868 5867 5867 5867 5866 5865 5864 5864 5864 5863 5863 5863 5863 5862 5861 5860 5859 5859 5858 5858 5857 5857 5857 5856 5856
5802 5804 5804 5806 5812 5817 5821 5826 5829 5832 5835 5839 5843 5845 5846 5847 5848 5849 5850 5851 5853 5855 5857 5859 5861 5862 5862 5862 5863 5863 5865 5867 5868 5867 5868 5868 5869 5870 5871 5871 5871 5872 5873 5874 5873 5872 5871 5870 5868 5868 5869 5870 5870 5870 5869 5868 5868 5867 5866 5865 5864 5864 5864 5864 5864 5864 5864 5864 5865 5865 5866 5866 5866 5866 5866 5866 5866 5865 5864 5863 5862 5862 5862 5861 5861 5861 5861 5860 5858 5858 5857 5857 5856 5856 5856 5855 5855
5796 5798 5800 5804 5810 5812 5817 5821 5825 5829 5832 5835 5839 5841 5842 5843 5845 5846 5847 5849 5850 5853 5855 5856 5857 5859 5859 5859 5860 5861 5863 5864 5865 5865 5866 5867 5867 5868 5869 5869 5870 5871 5871 5872 5871 5871 5869 5867 5865 5866 5867 5868 5868 5867 5867 5866 5865 5864 5863 5863 5862 5862 5863 5863 5863 5863 5863 5863 5863 5863 5864 5865 5864 5864 5864 5865 5864 5864 5863 5862 5861 5861 5860 5860 5859 5860 5860 5859 5858 5857 5856 5856 5855 5855 5855 5855 5854
5790 5793 5797 5801 5805 5808 5812 5817 5821 5824 5828 5831 5834 5837 5838 5840 5842 5842 5844 5846 5847 5850 5851 5852 5854 5855 5856 5856 5857 5859 5860 5861 5862 5863 5864 5865 5865 5866 5867 5868 5868 5868 5869 5869 5870 5870 5869 5866 5864 5865 5865 5866 5866 5865 5864 5863 5862 5861 5861 5860 5860 5860 5861 5861 5861 5861 5861 5861 5861 5862 5862 5862 5862 5862 5863 5863 5863 5862 5861 5861 5860 5859 5859 5859 5858 5858 5859 5858 5857 5856 5855 5855 5854 5854 5854 5854 5853
5785 5789 5794 5796 5799 5803 5807 5813 5816 5819 5823 5826 5830 5833 5835 5837 5837 5837 5840 5842 5844 5847 5848 5849 5850 5852 5852 5853 5855 5856 5857 5858 5859 5860 5861 5862 5863 5864 5866 5866 5866 5866 5866 5867 5867 5868 5867 5865 5864 5863 5863 5863 5863 5862 5861 5861 5860 5859 5858 5858 5858 5859 5859 5859 5859 5860 5860 5860 5860 5860 5860 5860 5861 5861 5861 5861 5860 5860 5859 5859 5859 5858 5858 5858 5858 5857 5857 5857 5857 5856 5855 5854 5853 5853 5853 5852 5852
5781 5785 5789 5791 5795 5798 5803 5809 5812 5815 5819 5822 5826 5829 5830 5832 5833 5834 5836 5838 5841 5843 5845 5846 5847 5849 5850 5850 5851 5852 5854 5855 5856 5858 5858 5859 5861 5862 5864 5864 5863 5863 5864 5864 5865 5865 5864 5863 5863 5862 5861 5861 5860 5860 5859 5859 5858 5857 5856 5856 5856 5857 5857 5858 5858 5858 5858 5858 5858 5858 5858 5858 5859 5859 5859 5858 5858 5858 5857 5857 5857 5857 5857 5856 5856 5856 5856 5856 5856 5855 5854 5853 5853 5852 5852 5851 5851
5776 5780 5784 5787 5790 5794 5799 5803 5807 5811 5814 5817 5821 5824 5826 5828 5829 5830 5833 5835 5837 5839 5842 5844 5844 5846 5847 5848 5848 5849 5851 5852 5853 5855 5856 5857 5858 5860 5862 5862 5861 5861 5861 5862 5862 5862 5862 5861 5861 5861 5859 5858 5858 5857 5857 5857 5856 5856 5855 5855 5855 5855 5855 5855 5856 5856 5856 5856 5856 5856 5856 5856 5856 5857 5856 5856 5856 5856 5856 5855 5855 5856 5855 5855 5854 5854 5854 5854 5854 5853 5853 5853 5852 5852 5851 5851 5850
5773 5777 5780 5783 5785 5789 5793 5798 5803 5806 5809 5813 5816 5819 5821 5824 5825 5826 5829 5832 5834 5835 5838 5840 5842 5843 5844 5845 5845 5846 5847 5848 5850 5851 5853 5854 5856 5858 5860 5859 5858 5858 5859 5859 5859 5859 5859 5859 5859 5859 5857 5856 5856 5855 5855 5855 5855 5854 5854 5853 5853 5853 5853 5853 5854 5854 5854 5854 5854 5854 5854 5854 5854 5854 5854 5854 5854 5853 5853 5853 5853 5853 5853 5853 5852 5852 5852 5851 5851 5851 5851 5851 5851 5851 5851 5850 5849
5768 5771 5774 5777 5780 5783 5788 5793 5798 5801 5805 5808 5811 5813 5816 5819 5821 5821 5825 5829 5830 5832 5833 5836 5839 5840 5841 5841 5842 5844 5844 5845 5847 5848 5850 5851 5853 5856 5857 5855 5855 5855 5856 5856 5857 5857 5857 5857 5857 5856 5855 5854 5853 5853 5853 5853 5853 5852 5852 5852 5852 5852 5852 5852 5852 5852 5852 5852 5852 5852 5852 5852 5852 5852 5852 5852 5851 5851 5851 5851 5851 5851 5851 5851 5850 5850 5850 5850 5849 5849 5849 5849 5849 5849 5849 5849 5848
5762 5764 5768 5771 5774 5777 5783 5789 5793 5796 5799 5803 5806 5809 5811 5814 5816 5817 5821 5824 5826 5829 5830 5831 5835 5838 5838 5838 5839 5841 5842 5843 5844 5845 5847 5849 5851 5853 5853 5852 5852 5852 5853 5853 5853 5854 5854 5854 5853 5853 5852 5851 5850 5850 5850 5850 5850 5850 5850 5850 5850 5850 5850 5850 5850 5850 5849 5849 5849 5850 5850 5850 5850 5850 5850 5850 5849 5849 5848 5848 5848 5848 5849 5848 5848 5848 5848 5848 5848 5847 5847 5847 5847 5847 5847 5847 5846
5755 5759 5762 5766 5769 5771 5777 5784 5788 5792 5795 5799 5802 5803 5805 5808 5810 5813 5816 5820 5823 5825 5827 5828 5831 5834 5835 5836 5837 5838 5839 5840 5842 5843 5844 5846 5849 5850 5849 5849 5849 5849 5850 5850 5850 5850 5850 5850 5850 5850 5849 5848 5847 5847 5847 5848 5848 5848 5848 5848 5848 5848 5848 5848 5848 5847 5846 5846 5847 5847 5847 5848 5848 5848 5848 5848 5847 5847 5846 5846 5846 5846 5846 5846 5846 5846 5846 5846 5846 5846 5845 5845 5845 5845 5845 5845 5844
5749 5754 5756 5761 5764 5766 5772 5779 5784 5788 5790 5794 5798 5797 5800 5803 5807 5810 5813 5816 5820 5822 5823 5824 5826 5830 5832 5833 5834 5835 5836 5838 5839 5840 5842 5844 5846 5846 5846 5846 5846 5846 5846 5846 5846 5846 5846 5846 5846 5846 5845 5845 5844 5844 5844 5845 5845 5846 5846 5846 5846 5846 5846 5846 5846 5845 5844 5844 5844 5845 5845 5845 5845 5845 5845 5845 5845 5845 5845 5844 5844 5844 5844 5845 5845 5845 5845 5845 5844 5844 5844 5843 5843 5843 5843 5843 5842
5744 5748 5750 5755 5759 5761 5768 5775 5779 5784 5786 5790 5794 5793 5795 5800 5803 5806 5809 5812 5815 5818 5820 5821 5822 5825 5828 5830 5832 5833 5834 5835 5836 5838 5840 5842 5842 5842 5843 5843 5843 5843 5843 5843 5843 5843 5843 5843 5843 5842 5842 5841 5841 5841 5842 5842 5843 5843 5844 5844 5844 5845 5845 5844 5844 5843 5842 5842 5842 5843 5843 5843 5843 5843 5843 5843 5843 5843 5843 5843 5843 5843 5843 5843 5843 5843 5843 5843 5843 5842 5842 5841 5841 5841 5841 5840 5839
5736 5741 5744 5750 5755 5756 5763 5771 5775 5779 5782 5786 5789 5788 5791 5796 5799 5802 5805 5807 5810 5813 5815 5817 5819 5822 5824 5826 5829 5831 5831 5832 5834 5836 5838 5838 5838 5839 5840 5841 5841 5841 5840 5840 5840 5840 5840 5840 5839 5839 5838 5838 5838 5838 5839 5840 5841 5841 5842 5842 5843 5843 5843 5842 5841 5841 5840 5840 5840 5841 5841 5841 5841 5841 5841 5841 5841 5841 5841 5841 5841 5841 5841 5841 5841 5841 5841 5841 5841 5840 5840 5839 5839 5839 5839 5838 5837
5730 5735 5740 5746 5750 5752 5758 5766 5770 5774 5777 5781 5784 5784 5787 5792 5795 5798 5802 5804 5806 5809 5812 5814 5816 5819 5821 5822 5826 5828 5828 5829 5832 5833 5834 5834 5835 5837 5838 5839 5838 5838 5838 5837 5837 5837 5837 5837 5836 5835 5835 5835 5835 5836 5837 5838 5839 5839 5840 5840 5841 5841 5841 5840 5839 5839 5839 5839 5839 5839 5839 5839 5839 5839 5839 5838 5838 5839 5839 5840 5840 5839 5839 5840 5840 5840 5840 5839 5839 5838 5838 5837 5837 5837 5837 5836 5836
5725 5732 5736 5740 5744 5747 5753 5760 5765 5769 5772 5776 5780 5780 5782 5787 5791 5794 5798 5801 5803 5806 5809 5811 5813 5816 5817 5819 5823 5824 5825 5827 5829 5830 5830 5831 5833 5835 5836 5836 5836 5835 5835 5835 5835 5835 5835 5834 5833 5833 5832 5832 5833 5834 5834 5835 5836 5837 5837 5838 5838 5838 5838 5838 5838 5838 5837 5837 5837 5837 5837 5837 5837 5837 5837 5836 5836 5837 5837 5838 5838 5838 5838 5838 5838 5838 5838 5837 5837 5836 5836 5835 5835 5835 5835 5834 5833
5724 5728 5731 5733 5737 5741 5746 5753 5760 5764 5769 5772 5775 5776 5778 5783 5787 5790 5794 5798 5800 5803 5806 5808 5810 5813 5814 5816 5819 5820 5821 5824 5826 5827 5828 5829 5832 5833 5834 5834 5833 5833 5832 5833 5833 5833 5833 5832 5831 5830 5829 5829 5830 5831 5832 5833 5834 5834 5835 5835 5835 5835 5835 5835 5836 5835 5835 5835 5835 5835 5835 5835 5836 5836 5835 5835 5835 5835 5835 5836 5836 5836 5836 5836 5836 5836 5836 5836 5835 5835 5834 5834 5833 5833 5833 5832 5831
5718 5722 5724 5727 5732 5737 5742 5749 5756 5761 5765 5768 5771 5773 5775 5779 5784 5788 5792 5795 5797 5800 5802 5805 5807 5809 5811 5813 5815 5816 5818 5820 5822 5824 5826 5828 5829 5830 5831 5831 5830 5830 5830 5830 5830 5831 5830 5829 5829 5827 5825 5827 5828 5829 5829 5831 5832 5833 5833 5833 5832 5832 5833 5833 5833 5833 5833 5833 5833 5833 5834 5834 5834 5834 5834 5834 5833 5833 5833 5834 5834 5834 5834 5834 5834 5834 5834 5834 5834 5833 5833 5832 5831 5831 5830 5829 5829
5709 5714 5718 5723 5729 5734 5740 5747 5753 5757 5761 5764 5767 5769 5771 5776 5781 5785 5788 5792 5794 5796 5799 5802 5804 5806 5808 5810 5811 5813 5815 5817 5819 5821 5823 5825 5826 5827 5828 5828 5828 5828 5828 5827 5827 5829 5828 5828 5828 5825 5825 5827 5828 5828 5828 5829 5830 5831 5831 5831 5830 5830 5830 5831 5831 5831 5831 5831 5831 5831 5832 5832 5832 5832 5832 5832 5832 5831 5832 5832 5832 5832 5832 5833 5833 5833 5833 5832 5832 5832 5831 5830 5829 5828 5828 5827 5826
5704 5710 5715 5719 5724 5729 5736 5743 5748 5752 5756 5760 5763 5765 5767 5772 5777 5781 5784 5787 5791 5794 5797 5800 5802 5804 5805 5806 5808 5810 5812 5814 5816 5818 5820 5822 5823 5824 5825 5826 5825 5826 5826 5824 5826 5828 5827 5827 5826 5824 5825 5827 5827 5827 5828 5828 5829 5828 5828 5828 5827 5828 5828 5828 5829 5829 5829 5829 5829 5830 5830 5830 5830 5830 5831 5830 5830 5830 5830 5830 5830 5831 5831 5831 5831 5832 5831 5831 5831 5830 5829 5828 5827 5826 5825 5824 5823
5699 5705 5710 5714 5720 5725 5731 5737 5742 5747 5750 5754 5758 5761 5764 5768 5773 5776 5780 5784 5788 5791 5794 5796 5798 5800 5802 5803 5806 5808 5809 5811 5813 5815 5817 5819 5820 5822 5822 5823 5823 5823 5824 5823 5824 5825 5824 5825 5824 5822 5822 5824 5824 5825 5826 5827 5827 5826 5825 5825 5825 5826 5826 5826 5827 5827 5827 5827 5827 5828 5828 5828 5828 5829 5829 5829 5829 5829 5829 5829 5829 5829 5830 5830 5830 5830 5830 5830 5829 5829 5828 5827 5826 5824 5823 5822 5821
5693 5700 5705 5711 5716 5721 5726 5732 5738 5741 5745 5749 5753 5756 5759 5763 5768 5771 5775 5779 5783 5786 5789 5792 5794 5796 5798 5800 5802 5804 5806 5808 5810 5813 5814 5816 5818 5819 5820 5820 5821 5821 5821 5821 5820 5819 5821 5822 5820 5819 5820 5821 5822 5824 5824 5825 5824 5823 5823 5823 5823 5824 5824 5824 5824 5825 5825 5825 5826 5826 5827 5827 5827 5827 5827 5827 5827 5827 5827 5827 5828 5828 5829 5829 5829 5829 5829 5829 5828 5828 5827 5826 5824 5823 5821 5820 5818
5689 5696 5702 5707 5713 5718 5722 5728 5734 5737 5740 5744 5748 5751 5753 5758 5762 5766 5770 5773 5777 5782 5785 5788 5790 5793 5795 5797 5800 5802 5804 5805 5808 5810 5812 5813 5815 5817 5817 5818 5819 5819 5818 5817 5816 5817 5818 5818 5817 5818 5819 5819 5820 5822 5822 5822 5821 5821 5821 5821 5821 5821 5822 5822 5822 5822 5823 5823 5824 5825 5825 5825 5825 5825 5825 5826 5826 5826 5826 5826 5827 5827 5827 5827 5828 5828 5828 5827 5827 5826 5825 5824 5823 5822 5820 5818 5817
5684 5691 5698 5703 5709 5714 5718 5724 5729 5732 5735 5739 5743 5745 5748 5753 5757 5761 5766 5769 5774 5778 5781 5785 5787 5790 5792 5795 5798 5799 5801 5803 5805 5807 5809 5811 5813 5814 5815 5816 5817 5817 5816 5814 5815 5816 5816 5816 5817 5817 5818 5817 5818 5819 5819 5819 5819 5819 5819 5818 5819 5819 5820 5820 5820 5820 5821 5821 5822 5823 5823 5823 5824 5824 5824 5824 5824 5824 5825 5825 5825 5826 5826 5826 5826 5826 5826 5826 5825 5824 5824 5822 5821 5820 5819 5817 5815
5680 5688 5695 5699 5704 5709 5713 5719 5724 5727 5731 5735 5739 5741 5744 5749 5753 5757 5762 5766 5770 5774 5778 5782 5784 5787 5790 5793 5795 5796 5799 5801 5803 5805 5806 5808 5810 5812 5813 5814 5814 5814 5813 5812 5813 5814 5813 5815 5816 5815 5814 5814 5815 5816 5816 5815 5816 5816 5816 5815 5816 5817 5818 5818 5818 5818 5819 5819 5820 5821 5821 5822 5822 5822 5822 5822 5823 5823 5823 5824 5825 5825 5825 5825 5825 5825 5824 5824 5823 5822 5821 5821 5820 5818 5817 5815 5813
5678 5686 5691 5695 5700 5705 5709 5715 5720 5724 5728 5731 5735 5738 5741 5745 5749 5754 5758 5762 5766 5770 5774 5778 5780 5783 5787 5790 5792 5794 5797 5799 5800 5802 5804 5806 5808 5809 5811 5811 5812 5811 5810 5810 5811 5812 5812 5813 5813 5812 5812 5812 5813 5813 5812 5813 5813 5813 5813 5812 5813 5815 5816 5816 5816 5817 5817 5817 5818 5819 5819 5820 5820 5821 5821 5821 5821 5822 5822 5823 5823 5824 5824 5824 5824 5823 5822 5822 5821 5820 5819 5818 5817 5816 5814 5813 5811
5676 5682 5686 5690 5695 5700 5705 5711 5716 5720 5723 5726 5730 5734 5736 5739 5744 5749 5754 5758 5761 5765 5770 5774 5777 5781 5785 5788 5790 5792 5794 5796 5798 5800 5801 5803 5805 5807 5808 5809 5809 5808 5807 5807 5809 5810 5811 5811 5810 5809 5810 5810 5810 5810 5810 5811 5812 5811 5811 5811 5812 5813 5813 5814 5814 5815 5815 5815 5816 5816 5817 5818 5819 5819 5819 5820 5820 5821 5821 5822 5822 5822 5822 5822 5822 5821 5820 5820 5819 5818 5817 5816 5814 5813 5811 5810 5808
5672 5678 5681 5685 5691 5696 5702 5707 5712 5716 5718 5722 5726 5730 5731 5734 5739 5744 5748 5752 5756 5762 5768 5772 5775 5779 5783 5786 5787 5789 5792 5793 5795 5797 5799 5802 5803 5804 5805 5806 5807 5806 5805 5805 5807 5808 5809 5810 5809 5807 5807 5808 5808 5808 5808 5809 5809 5808 5809 5810 5810 5810 5810 5811 5813 5814 5813 5813 5813 5814 5815 5816 5817 5818 5818 5819 5819 5819 5820 5820 5821 5821 5821 5820 5820 5819 5818 5818 5817 5816 5814 5813 5812 5810 5808 5807 5805
5669 5673 5677 5682 5687 5692 5698 5704 5709 5711 5714 5719 5723 5726 5729 5730 5735 5741 5744 5749 5756 5761 5766 5770 5774 5778 5781 5783 5785 5787 5789 5791 5793 5795 5797 5799 5801 5802 5803 5803 5804 5804 5803 5803 5804 5806 5807 5807 5806 5805 5805 5806 5806 5806 5805 5806 5806 5806 5807 5809 5809 5809 5809 5809 5811 5812 5811 5811 5812 5813 5814 5815 5816 5816 5817 5817 5817 5818 5819 5819 5819 5819 5819 5819 5818 5817 5816 5815 5814 5813 5812 5810 5809 5807 5805 5804 5802
5664 5670 5674 5678 5683 5688 5695 5700 5704 5708 5712 5716 5719 5723 5725 5726 5732 5739 5743 5749 5755 5758 5763 5768 5773 5776 5779 5781 5782 5784 5786 5788 5790 5793 5795 5797 5798 5799 5800 5801 5801 5801 5801 5800 5801 5803 5804 5804 5803 5803 5803 5804 5804 5804 5804 5804 5805 5805 5806 5806 5807 5807 5808 5808 5809 5810 5810 5810 5811 5811 5812 5813 5814 5815 5815 5816 5816 5817 5817 5817 5818 5817 5817 5816 5816 5815 5814 5813 5812 5811 5809 5808 5806 5804 5802 5800 5799
5659 5666 5670 5674 5679 5684 5691 5696 5701 5706 5709 5711 5715 5720 5721 5723 5730 5736 5740 5746 5751 5755 5761 5766 5770 5773 5775 5778 5779 5781 5783 5785 5788 5790 5792 5794 5795 5796 5797 5798 5798 5799 5798 5798 5798 5800 5801 5801 5801 5801 5801 5801 5801 5801 5802 5802 5803 5804 5804 5804 5805 5805 5806 5806 5807 5808 5808 5809 5809 5810 5810 5811 5812 5813 5814 5815 5815 5815 5816 5816 5816 5815 5815 5814 5814 5813 5812 5811 5810 5808 5807 5805 5803 5801 5799 5797 5795
5656 5662 5666 5670 5675 5680 5687 5694 5699 5702 5704 5707 5713 5716 5718 5722 5727 5733 5737 5743 5748 5754 5759 5763 5767 5769 5771 5774 5776 5777 5779 5782 5785 5787 5789 5791 5792 5793 5794 5795 5795 5796 5796 5796 5797 5798 5799 5798 5799 5799 5799 5799 5799 5799 5799 5800 5801 5802 5802 5803 5803 5803 5804 5805 5806 5806 5807 5807 5808 5808 5809 5810 5811 5812 5813 5813 5814 5814 5814 5814 5814 5813 5813 5812 5812 5811 5810 5809 5808 5806 5804 5802 5800 5798 5796 5794 5792
5655 5660 5664 5668 5673 5679 5685 5690 5695 5698 5700 5705 5711 5713 5715 5720 5724 5730 5736 5741 5746 5751 5755 5759 5762 5764 5766 5768 5770 5772 5775 5778 5782 5785 5787 5789 5789 5790 5791 5792 5792 5793 5793 5794 5795 5796 5797 5796 5796 5797 5797 5797 5797 5797 5797 5797 5798 5799 5800 5801 5801 5801 5803 5804 5804 5805 5805 5806 5806 5806 5807 5808 5809 5810 5811 5812 5812 5812 5812 5812 5812 5811 5811 5811 5810 5809 5808 5807 5805 5804 5802 5800 5797 5795 5793 5791 5789
5653 5658 5662 5666 5673 5679 5684 5689 5692 5695 5697 5702 5707 5710 5713 5717 5721 5727 5733 5737 5742 5747 5750 5754 5757 5760 5762 5764 5766 5769 5772 5776 5779 5782 5784 5786 5787 5787 5788 5789 5790 5790 5791 5792 5792 5793 5794 5794 5793 5794 5795 5796 5796 5795 5795 5796 5796 5797 5798 5799 5799 5800 5801 5802 5803 5803 5803 5804 5804 5805 5806 5807 5808 5809 5809 5810 5810 5810 5810 5810 5810 5810 5809 5809 5808 5807 5806 5804 5803 5801 5799 5797 5795 5793 5790 5789 5787
5650 5656 5661 5666 5671 5676 5682 5688 5691 5693 5695 5700 5705 5709 5711 5714 5719 5724 5730 5734 5738 5742 5747 5751 5754 5757 5760 5762 5765 5768 5771 5774 5777 5780 5782 5783 5784 5784 5785 5786 5787 5788 5788 5789 5790 5791 5791 5791 5791 5791 5792 5794 5793 5793 5793 5794 5794 5796 5797 5798 5798 5798 5799 5800 5801 5801 5801 5802 5802 5803 5804 5805 5806 5807 5808 5808 5808 5808 5808 5808 5808 5808 5807 5806 5806 5805 5803 5802 5800 5798 5796 5794 5792 5790 5788 5786 5784
5647 5653 5659 5664 5667 5672 5678 5684 5687 5690 5694 5697 5703 5707 5709 5712 5716 5722 5727 5731 5735 5740 5744 5749 5752 5755 5758 5760 5763 5767 5770 5773 5775 5777 5779 5780 5781 5782 5782 5783 5784 5785 5785 5786 5787 5788 5788 5789 5788 5789 5790 5790 5791 5791 5791 5791 5792 5794 5796 5796 5797 5797 5797 5798 5798 5799 5800 5800 5801 5802 5802 5804 5805 5805 5806 5806 5806 5806 5806 5806 5806 5806 5805 5804 5803 5802 5801 5799 5797 5795 5793 5791 5789 5787 5785 5783 5781
5645 5652 5657 5661 5664 5669 5675 5679 5683 5688 5691 5695 5700 5705 5707 5710 5714 5719 5725 5729 5733 5737 5741 5745 5748 5752 5756 5759 5762 5765 5768 5770 5773 5775 5777 5778 5779 5779 5780 5781 5782 5782 5783 5784 5785 5785 5786 5786 5786 5786 5787 5787 5788 5789 5789 5789 5791 5793 5794 5795 5795 5795 5795 5796 5796 5797 5798 5798 5799 5800 5801 5802 5803 5804 5804 5804 5804 5804 5804 5804 5804 5804 5803 5802 5801 5800 5798 5796 5794 5793 5791 5789 5787 5784 5782 5780 5778
5642 5648 5655 5660 5664 5668 5672 5677 5681 5685 5689 5693 5698 5702 5705 5708 5712 5717 5722 5726 5731 5735 5739 5742 5746 5750 5754 5757 5760 5763 5766 5769 5771 5773 5774 5775 5776 5777 5778 5778 5779 5779 5780 5781 5782 5783 5783 5783 5784 5784 5784 5785 5786 5787 5788 5788 5790 5791 5792 5793 5793 5793 5793 5794 5794 5795 5796 5797 5798 5799 5800 5801 5802 5802 5802 5802 5802 5802 5803 5802 5802 5801 5801 5800 5799 5797 5795 5794 5792 5790 5788 5786 5784 5782 5779 5777 5775
5641 5646 5651 5657 5661 5666 5671 5676 5681 5685 5688 5691 5696 5700 5703 5707 5711 5715 5719 5724 5728 5732 5736 5741 5745 5749 5752 5755 5758 5761 5764 5767 5769 5771 5772 5772 5772 5773 5774 5775 5776 5777 5778 5779 5780 5780 5781 5781 5781 5782 5782 5783 5784 5785 5786 5787 5788 5788 5789 5790 5790 5791 5791 5792 5792 5793 5794 5795 5797 5798 5799 5799 5800 5800 5800 5800 5800 5801 5801 5800 5800 5799 5798 5797 5796 5794 5793 5791 5789 5787 5785 5783 5781 5779 5777 5775 5772
5643 5647 5651 5654 5658 5664 5670 5675 5679 5683 5686 5689 5694 5698 5701 5705 5710 5713 5717 5723 5727 5731 5735 5739 5743 5746 5750 5753 5756 5759 5761 5764 5766 5768 5769 5769 5770 5771 5772 5772 5773 5774 5775 5776 5777 5778 5778 5779 5779 5780 5780 5781 5782 5783 5783 5784 5784 5785 5786 5787 5788 5789 5789 5790 5791 5792 5793 5794 5795 5796 5797 5798 5798 5798 5798 5798 5798 5798 5798 5798 5798 5797 5796 5795 5793 5792 5790 5788 5787 5785 5783 5780 5778 5776 5774 5772 5769